SL-16 DEB, 24303

Orbit data source: Space-Track

SL-16 DEB, 24303 is space debris in LEO originally from a launch on Wed, 04 Sep 1996 UTC launched from the Tyuratam Missile And Space Complex (TTMTR). Debris objects in space refer to the collection of defunct objects orbiting the Earth. Examples of debris include non-operational satellites, rocket bodies, and fragments generated from explosions, collisions, or faulty payload assembly.

Loading next visibility...
Identifier
24303, 1996-051G
Orbit
LEO
Country
Flag of CISCIS
Related business
Manufacturer
Unknown
Mission
Spacecraft
Bus & Motor
Unknown
Mass
Unknown
Launch date (UTC)
1996-09-04 (30 years ago)
Launch vehicle
Unknown
Launch site
Tyuratam Missile And Space Complex (TTMTR)
Object type
Payload
Rocket body
Debris
Shape & HBR
Unknown shape, 0.5 m
Radar Cross Section
Medium (>0.1 m² and <1 m²)

Expand to show TLE details & history
Last TLE update: 6 hours ago

TLE from 6 hours ago
0 SL-16 DEB
1 24303U 96051G   26094.28872531  .00000290  00000-0  19185-3 0  9998
2 24303  71.1070 184.0366 0068209 107.2314 315.7397 14.08407220520269
Epoch: 2026-04-04T06:55Z
TLE epoch observation values (Epoch: 2026-04-04T06:55:45.866Z)
Latitude
57.10678°
Longitude
-80.75533°
Altitude
838.646 km
Speed
7.457 km/s
True Right ascension
14h 23m 11s
True Declination
56° 57' 05"
Sunlit
Object was in daylight at epoch
Visualization orbit readout
Latitude
Unknown
Longitude
Unknown
Altitude
Unknown
Speed
Unknown
Apparent Right ascension
Unknown
Apparent Declination
Unknown
Sunlit
N/A
Visualization observer readout
Local Sidereal Time
18:45:21
Azimuth
Unknown
Elevation
Unknown
Doppler factor
Unknown
Orbital elements
Apogee altitude
912.137 km
Perigee altitude
813.359 km
Semi-major axis
7,240.885 km
Eccentricity
0.00682
Inclination
71.107°
RAAN
184.0366°
Arg. of periapsis
107.2314°
True anomaly
315.19085°
Mean anomaly
315.7397°
Eccentric anomaly
315.46561°
Mean motion
3.52254 °/min
Orbital period
102.2 mins
BSTAR
0.00019185
Loading maneuver chart data...
Computing Atmospheric mass density...
Loading historical data...
Loading historical data...
Loading historical data...
Loading historical data...
Loading historical data...
Loading historical data...
Loading historical data...

Documentation

Showing up to 5 results
|